Regional Weather Roundup
Issued by NWS

Home | Current Version | Previous Version | Graphics & Text | Print | Product List | Glossary On
Versions: 1 2 3 4 5 6 7 8 9 10 11 12 13 14 15 16 17 18 19 20 21 22 23 24 25 26 27 28 29 30 31 32 33 34 35 36 37 38 39 40 41 42 43 44 45 46 47 48 49 50
000
ASUS43 KDMX 170801
RWRIA

WEATHER ROUNDUP FOR IOWA
NATIONAL WEATHER SERVICE DES MOINES IA
300 AM CDT TUE OCT 17 2017

NOTE: "FAIR" INDICATES FEW OR NO CLOUDS BELOW 12,000 FEET WITH NO
SIGNIFICANT WEATHER AND/OR OBSTRUCTIONS TO VISIBILITY.

* - THESE STATIONS ARE NOT NWS STATIONS...THUS NOT UNDER NWS
QUALITY CONTROL.  THEY ALSO DO NOT REPORT WEATHER SUCH
AS PRECIPITATION OR FOG.

IAZ001>003-012>014-020>022-031>034-043>046-170900-
   NORTHWEST IOWA

CITY           SKY/WX    TMP DP  RH WIND       PRES   REMARKS
CARROLL *      PTCLDY    57  43  58 SW17G24   30.08R
CHEROKEE *     CLEAR     44  41  89 S5        30.07S
DENISON *      CLEAR     54  41  62 S9        30.10S
LE MARS *      CLEAR     45  41  87 S7        30.05S
ORANGE CITY *  CLEAR     46  43  87 CALM      30.05R
SHELDON *      CLEAR     43  37  81 E3        30.03S
SIOUX CITY     CLEAR     45  41  86 E9        30.07R
SPENCER        CLEAR     51  40  65 SW7       30.05R
STORM LAKE *   CLEAR     50  39  66 SW9       30.07S
$$

IAZ055>058-069>071-079>083-090>094-170900-
   SOUTHWEST IOWA

CITY           SKY/WX    TMP DP  RH WIND       PRES   REMARKS
ATLANTIC *     CLEAR     48  41  76 SW9       30.12S
AUDUBON *      CLEAR     52  41  66 S9        30.11F
CLARINDA *     PTCLDY    50  41  71 S7        30.18S
COUNCIL BLFS * CLEAR     54  41  62 S13       30.10F
CRESTON *      CLOUDY    50  41  71 SW13      30.17S
HARLAN  *      CLEAR     48  41  76 S6        30.14S
LAMONI         CLEAR     49  41  74 S9        30.18R
RED OAK *      CLEAR     46  41  81 S6        30.14S
SHENANDOAH *   PTCLDY    48  41  76 SE8       30.15S
$$

IAZ047>049-059>061-072>074-084-170900-
   CENTRAL IOWA

CITY           SKY/WX    TMP DP  RH WIND       PRES   REMARKS
AMES           CLEAR     51  42  71 SW9       30.11R
ANKENY *       CLEAR     54  41  62 S5        30.14R
BOONE *        CLEAR     52  41  66 SW9       30.10R
CHARITON *     PTCLDY    52  41  66 SW12      30.16S
DES MOINES     CLEAR     54  40  59 S13       30.13R
GRINNELL*      CLEAR     51  40  67 SW8       30.15R
KNOXVILLE *    PTCLDY    52  39  62 S7G14     30.14R
MARSHALLTOWN   CLEAR     52  41  66 SW9       30.11R
NEWTON *       CLEAR     54  41  62 SW10      30.14R
PELLA *        CLEAR     53  40  62 SW12      30.16R
PERRY *          N/A     55  38  54 SW8       30.10S
$$

IAZ004>006-015-016-023>025-035-036-170900-
   NORTH CENTRAL IOWA

CITY           SKY/WX    TMP DP  RH WIND       PRES   REMARKS
ALGONA *       CLEAR     50  41  71 SW7G14    30.06S
CLARION *      CLEAR     48  41  76 S7        30.08R
ESTHERVILLE    CLEAR     51  40  65 SW8       30.04R
FORT DODGE *   CLEAR     50  40  68 SW8       30.08R
MASON CITY     CLEAR     53  39  59 SW16G22   30.07R
FOREST CITY *    N/A     46  39  76 SW5       30.06R
WEBSTER CITY * CLEAR     52  39  62 SW10      30.07R
IOWA FALLS *     N/A     54  42  64 SW13      30.10R
$$

IAZ007>011-017>019-026>030-037>042-050>054-066-170900-
   NORTHEAST IOWA

CITY           SKY/WX    TMP DP  RH WIND       PRES   REMARKS
CEDAR RAPIDS   PTCLDY    48  40  73 S9        30.13S
CHARLES CITY * CLEAR     50  41  71 S7        30.07S
CLINTON *      CLOUDY    48  39  71 SW7       30.18S
DECORAH *      CLEAR     54  39  58 SW12G21   30.05F
DUBUQUE        CLEAR     49  38  65 SW13      30.12F
MONTICELLO *   CLEAR     48  39  71 S7        30.13S
OELWEIN *      CLOUDY    46  41  81 S6        30.11R
WATERLOO       CLEAR     54  39  57 SW10      30.09S
$$

IAZ064-065-067-068-078-170900-
   EAST CENTRAL IOWA

CITY           SKY/WX    TMP DP  RH WIND       PRES   REMARKS
DAVENPORT      CLEAR     52  38  58 SW8       30.19S
IOWA CITY      CLOUDY    53  40  61 SW6       30.17S
MUSCATINE *    PTCLDY    52  39  62 S8        30.18F
QUAD CITIES    CLEAR     52  37  56 SW7       30.18R
$$

IAZ062-063-075>077-085>089-095>099-170900-
   SOUTHEAST IOWA

CITY           SKY/WX    TMP DP  RH WIND       PRES   REMARKS
BURLINGTON     PTCLDY    49  41  74 SW7       30.21S
FAIRFIELD *    CLOUDY    52  39  62 SW8       30.18S
FORT MADISON * CLOUDY    52  39  62 SW8       30.22S
KEOKUK *       CLOUDY    48  41  76 SW7       30.21S
OSKALOOSA *      N/A     48  41  76 SW8       30.16F
OTTUMWA        CLEAR     50  40  68 S10       30.16F
WASHINGTON *   PTCLDY    50  41  71 SW10      30.18S
$$

ABBREVIATIONS USED IN REMARKS
   TC - TEMPERATURES IN CELSIUS
  WCI - WIND CHILL INDEX
   HX - HEAT INDEX
  VSB - VISIBILITY
$$





USA.gov is the U.S. government's official web portal to all federal, state and local government web resources and services.